Location: Eldred Sherwood Park Lake Dam
(42.9416°N, 93.5655°W)
Time: 15:58:38
(UTC+00:00)

Tiros 1 - Visible Passes

Search period start: 02 November 2024 00:00
Search period end: 12 November 2024 00:00
Orbit: 622 x 654 km, 48.4° (Epoch: 01 November)

Date Brightness Start Highest point End Pass type
(mag) Time Alt. Az. Time Alt. Az. Time Alt. Az.
05 Nov 10.0 02:02:21 10° SW 02:02:24 10° SW 02:02:24 10° SW visible
06 Nov 8.8 00:44:57 10° S 00:47:33 19° SSE 00:47:33 19° SSE visible
07 Nov 8.1 01:06:48 10° SSW 01:10:09 34° S 01:10:09 34° S visible
07 Nov 8.9 23:49:44 10° S 23:52:46 17° SE 23:55:08 12° E visible
08 Nov 8.1 01:29:28 10° SW 01:32:38 42° SW 01:32:38 42° SW visible
09 Nov 8.0 00:11:16 10° SSW 00:15:30 34° SE 00:17:32 23° E visible
09 Nov 8.9 01:52:34 10° WSW 01:55:01 30° W 01:55:01 30° W visible
10 Nov 7.2 00:33:45 10° SW 00:38:25 64° SSE 00:39:49 42° E visible
10 Nov 9.7 02:15:57 10° W 02:17:19 18° W 02:17:19 18° W visible
11 Nov 7.1 00:56:45 10° WSW 01:01:30 78° NNW 01:02:03 67° NE visible
11 Nov 10.3 02:39:23 10° WNW 02:39:32 11° WNW 02:39:32 11° WNW visible
11 Nov 7.5 23:38:02 10° SW 23:42:38 55° SE 23:46:44 13° ENE visible
